Salida, CO

2:26 AM MST on February 14, 2016 (GMT -0700)
Salida

Weather History for KANK - April, 2014

Change the Weather History Date:

Wednesday, April 9, 2014

  Actual Average (KGUC) Record (KGUC)
Temperature  
Mean Temperature 50 °F -  
Max Temperature 67 °F 49 °F 66 °F (2012)
Min Temperature 34 °F 21 °F 15 °F (2001)
Degree Days  
Heating Degree Days 14    
Moisture  
Dew Point 16 °F    
Average Humidity 28    
Maximum Humidity 60    
Minimum Humidity 10    
Precipitation  
Precipitation 0.00 in - - ()
Sea Level Pressure  
Sea Level Pressure 30.26 in    
Wind  
Wind Speed 9 mph (West)    
Max Wind Speed 25 mph    
Max Gust Speed 36 mph    
Visibility 10 miles    
Events      
Averages and records for this station are not official NWS values.
T = Trace of Precipitation, MM = Missing Value Source: NWS Daily Summary

Daily Weather History Graph

Daily Weather History Graph

Search for Another Location

Airport or City:

Trip Planner

Search our weather history database for the weather conditions in past years. The results will help you decide how hot, cold, wet, or windy it might be!

Date:

Astronomy

Apr. 09, 2014 Rise Set
Actual Time 6:36 AM MDT 7:35 PM MDT
Civil Twilight 6:09 AM MDT 8:02 PM MDT
Nautical Twilight 5:37 AM MDT 8:34 PM MDT
Astronomical Twilight 5:04 AM MDT 9:08 PM MDT
Moon 2:29 PM MDT (4/9) 3:23 AM MDT (4/9)
Length of Visible Light 13h 52m
Length of Day
12h 58m
Waxing Gibbous, 72% of the Moon is Illuminated
Apr 9
Waxing Gibbous
Apr 15
Full
Apr 22
Last Quarter
Apr 29
New
May 6
First Quarter

Hourly Weather History & Observations

Time (MDT) Temp. Windchill Dew Point Humidity Pressure Visibility Wind Dir Wind Speed Gust Speed Precip Events Conditions
12:15 AM 43.7 °F 41.1 °F 20.7 °F 40% 30.37 in 10.0 mi West 4.6 mph - N/A   Clear
12:35 AM 43.2 °F 39.7 °F 21.7 °F 43% 30.37 in 10.0 mi WSW 5.8 mph - N/A   Clear
12:55 AM 41.2 °F 36.6 °F 22.5 °F 47% 30.37 in 10.0 mi WSW 6.9 mph - N/A   Clear
1:15 AM 39.9 °F 35.8 °F 22.1 °F 49% 30.37 in 10.0 mi West 5.8 mph - N/A   Clear
1:35 AM 38.8 °F 33.2 °F 21.7 °F 50% 30.37 in 10.0 mi West 8.1 mph - N/A   Clear
1:55 AM 39.4 °F 36.1 °F 21.2 °F 48% 30.36 in 10.0 mi WNW 4.6 mph - N/A   Clear
2:15 AM 39.2 °F 37.0 °F 21.4 °F 49% 30.35 in 10.0 mi WSW 3.5 mph - N/A   Clear
2:35 AM 39.0 °F 34.8 °F 21.4 °F 49% 30.35 in 10.0 mi NW 5.8 mph - N/A   Clear
2:55 AM 39.7 °F 37.6 °F 21.2 °F 48% 30.35 in 10.0 mi West 3.5 mph - N/A   Clear
3:15 AM 37.2 °F - 21.6 °F 53% 30.35 in 10.0 mi Calm Calm - N/A   Clear
3:35 AM 37.8 °F 34.2 °F 21.6 °F 52% 30.34 in 10.0 mi West 4.6 mph - N/A   Clear
3:55 AM 38.1 °F 34.6 °F 21.2 °F 51% 30.34 in 10.0 mi West 4.6 mph - N/A   Clear
4:15 AM 34.5 °F - 21.2 °F 58% 30.33 in 10.0 mi Calm Calm - N/A   Clear
4:35 AM 34.0 °F 31.0 °F 21.2 °F 60% 30.32 in 10.0 mi North 3.5 mph - N/A   Clear
4:55 AM 35.8 °F - 20.7 °F 54% 30.33 in 10.0 mi Calm Calm - N/A   Clear
5:15 AM 36.9 °F 32.2 °F 20.7 °F 52% 30.33 in 10.0 mi West 5.8 mph - N/A   Clear
5:35 AM 37.9 °F 32.1 °F 20.3 °F 49% 30.32 in 10.0 mi NNW 8.1 mph - N/A   Clear
5:55 AM 38.7 °F 35.2 °F 19.4 °F 46% 30.33 in 10.0 mi NW 4.6 mph - N/A   Clear
6:15 AM 38.7 °F 32.9 °F 19.6 °F 46% 30.33 in 10.0 mi NNW 8.1 mph - N/A   Clear
6:35 AM 37.8 °F 29.8 °F 20.1 °F 49% 30.33 in 10.0 mi NNW 12.7 mph - N/A   Clear
6:55 AM 38.5 °F 34.1 °F 19.8 °F 47% 30.34 in 10.0 mi NNW 5.8 mph - N/A   Clear
7:15 AM 40.3 °F 34.4 °F 19.4 °F 43% 30.35 in 10.0 mi NW 9.2 mph 16.1 mph N/A   Clear
7:35 AM 41.2 °F 35.0 °F 19.6 °F 42% 30.35 in 10.0 mi NW 10.4 mph - N/A   Clear
7:55 AM 41.4 °F 35.2 °F 20.3 °F 43% 30.34 in 10.0 mi NNW 10.4 mph - N/A   Clear
8:15 AM 42.3 °F 36.8 °F 21.0 °F 43% 30.35 in 10.0 mi NNW 9.2 mph - N/A   Clear
8:35 AM 45.0 °F 40.1 °F 20.7 °F 38% 30.35 in 10.0 mi North 9.2 mph - N/A   Clear
8:55 AM 47.7 °F - 20.3 °F 34% 30.34 in 10.0 mi NNW 4.6 mph - N/A   Clear
9:15 AM 50.7 °F - 20.7 °F 31% 30.33 in 10.0 mi NW 6.9 mph - N/A   Clear
9:55 AM 58.5 °F - 17.6 °F 20% 30.32 in 10.0 mi SSW 13.8 mph 23.0 mph N/A   Clear
10:15 AM 59.4 °F - 17.6 °F 20% 30.31 in 10.0 mi SW 12.7 mph 23.0 mph N/A   Clear
10:35 AM 60.6 °F - 16.3 °F 18% 30.30 in 10.0 mi South 13.8 mph 28.8 mph N/A   Clear
10:55 AM 61.3 °F - 15.3 °F 17% 30.30 in 10.0 mi SSW 19.6 mph 29.9 mph N/A   Clear
11:15 AM 62.2 °F - 15.6 °F 16% 30.30 in 10.0 mi SSW 21.9 mph 29.9 mph N/A   Clear
11:35 AM 63.1 °F - 16.0 °F 16% 30.29 in 10.0 mi WSW 17.3 mph 29.9 mph N/A   Clear
11:55 AM 64.8 °F - 14.5 °F 14% 30.28 in 10.0 mi WSW 21.9 mph 28.8 mph N/A   Clear
12:15 PM 65.8 °F - 14.2 °F 14% 30.27 in 10.0 mi SW 24.2 mph 29.9 mph N/A   Clear
12:35 PM 66.6 °F - 14.2 °F 13% 30.27 in 10.0 mi WSW 20.7 mph 31.1 mph N/A   Clear
12:55 PM 66.4 °F - 13.6 °F 13% 30.26 in 10.0 mi WSW 20.7 mph 29.9 mph N/A   Clear
1:15 PM 66.2 °F - 13.3 °F 13% 30.25 in 10.0 mi WSW 19.6 mph 28.8 mph N/A   Clear
1:35 PM 66.4 °F - 13.5 °F 13% 30.25 in 10.0 mi WSW 18.4 mph 26.5 mph N/A   Clear
1:55 PM 65.7 °F - 12.2 °F 13% 30.25 in 10.0 mi WSW 19.6 mph 35.7 mph N/A   Clear
2:15 PM 66.7 °F - 13.3 °F 13% 30.24 in 10.0 mi West 19.6 mph 28.8 mph N/A   Clear
2:35 PM 65.8 °F - 12.9 °F 13% 30.23 in 10.0 mi West 25.3 mph 33.4 mph N/A   Clear
2:55 PM 66.6 °F - 13.5 °F 13% 30.22 in 10.0 mi West 20.7 mph 32.2 mph N/A   Clear
3:15 PM 66.0 °F - 12.7 °F 13% 30.21 in 10.0 mi West 23.0 mph 33.4 mph N/A   Clear
3:35 PM 67.8 °F - 12.9 °F 12% 30.20 in 10.0 mi West 18.4 mph 29.9 mph N/A   Clear
3:55 PM 66.6 °F - 12.0 °F 12% 30.19 in 10.0 mi West 19.6 mph 29.9 mph N/A   Clear
4:15 PM 67.6 °F - 9.1 °F 10% 30.17 in 10.0 mi West 19.6 mph 33.4 mph N/A   Clear
4:35 PM 67.1 °F - 8.8 °F 10% 30.17 in 10.0 mi West 21.9 mph 29.9 mph N/A   Clear
4:55 PM 66.0 °F - 8.8 °F 11% 30.17 in 10.0 mi West 16.1 mph 35.7 mph N/A   Clear
5:15 PM 65.1 °F - 8.8 °F 11% 30.17 in 10.0 mi West 19.6 mph 25.3 mph N/A   Clear
5:35 PM 65.5 °F - 10.2 °F 12% 30.16 in 10.0 mi West 15.0 mph 20.7 mph N/A   Clear
5:55 PM 64.8 °F - 10.2 °F 12% 30.17 in 10.0 mi West 16.1 mph 20.7 mph N/A   Clear
6:15 PM 64.6 °F - 10.9 °F 12% 30.16 in 10.0 mi West 10.4 mph 19.6 mph N/A   Clear
6:35 PM 63.3 °F - 9.9 °F 12% 30.16 in 10.0 mi West 17.3 mph 29.9 mph N/A   Clear
6:55 PM 63.0 °F - 8.8 °F 12% 30.16 in 10.0 mi West 18.4 mph 29.9 mph N/A   Clear
7:15 PM 61.2 °F - 8.1 °F 12% 30.15 in 10.0 mi West 12.7 mph 23.0 mph N/A   Clear
7:35 PM 60.1 °F - 8.6 °F 13% 30.15 in 10.0 mi WSW 10.4 mph 19.6 mph N/A   Clear
7:55 PM 58.3 °F - 10.0 °F 15% 30.15 in 10.0 mi WSW 5.8 mph - N/A   Clear
8:15 PM 56.7 °F - 11.5 °F 17% 30.16 in 10.0 mi WSW 5.8 mph - N/A   Clear
8:35 PM 55.0 °F - 11.3 °F 18% 30.17 in 10.0 mi WSW 5.8 mph - N/A   Clear
8:55 PM 54.9 °F - 11.8 °F 18% 30.17 in 10.0 mi WSW 4.6 mph - N/A   Clear
9:15 PM 54.5 °F - 11.7 °F 18% 30.17 in 10.0 mi West 5.8 mph - N/A   Clear
9:35 PM 54.0 °F - 12.4 °F 19% 30.17 in 10.0 mi West 6.9 mph - N/A   Clear
9:55 PM 51.8 °F - 13.6 °F 22% 30.17 in 10.0 mi WSW 8.1 mph - N/A   Clear
10:15 PM 53.1 °F - 12.6 °F 20% 30.17 in 10.0 mi WSW 8.1 mph - N/A   Clear
10:35 PM 53.4 °F - 12.9 °F 20% 30.17 in 10.0 mi West 8.1 mph - N/A   Clear
10:55 PM 51.8 °F - 13.5 °F 22% 30.16 in 10.0 mi WSW 10.4 mph - N/A   Clear
11:15 PM 52.9 °F - 12.7 °F 20% 30.15 in 10.0 mi WSW 13.8 mph - N/A   Clear
11:35 PM 57.0 °F - 8.6 °F 15% 30.15 in 10.0 mi SW 6.9 mph 24.2 mph N/A   Clear
11:55 PM 55.8 °F - 9.3 °F 16% 30.15 in 10.0 mi SW 13.8 mph 25.3 mph N/A   Clear